Tracking 19651 objects as of 22-Apr-2019
HD Live streaming from Space Station
objects crossing your sky now

GLOBALSTAR M024

Track GLOBALSTAR M024 now!
10-day predictions
GLOBALSTAR M024 is classified as:


NORAD ID: 25883
Int'l Code: 1999-043A
Perigee: 2,115.7 km
Apogee: 2,118.7 km
Inclination: 52.0 °
Period: 129.7 minutes
Semi major axis: 8488 km
RCS: 2.6378 m2 (large)
Launch date: August 17, 1999
Source: Globalstar (GLOB)
Launch site: AIR FORCE EASTERN TEST RANGE (AFETR)
aabbcc
Your satellite tracking list
Your tracking list is empty




NASA's NSSDC Master Catalog

Two Line Element Set (TLE):
1 25883U 99043A   19111.96555191 -.00000137 +00000-0 -25644-2 0  9991
2 25883 052.0034 053.2292 0001756 015.7501 059.3932 11.10136681865180
Source of the keplerian elements: AFSPC